Location: Cactus School
(34.5700°N, 118.0931°W)
Time: 19:25:07
(UTC-07:00)

Transit 4A - Pass Details

Date: 21 April 2024
Orbit: 871 x 971 km, 66.8° (Epoch: 21 May)

Event Time Altitude Azimuth Distance (km) Brightness Sun altitude
Rises 23:59:49 0° 315° (NW) 3,467 11.6 -41.8°
Reaches altitude 10° 00:03:00 10° 298° (WNW) 2,532 10.5 -42.0°
Enters shadow 00:03:24 11° 295° (WNW) 2,432 10.4 -42.0°
Maximum altitude 00:06:56 19° 255° (WSW) 1,979 - -42.2°
Drops below altitude 10° 00:10:56 10° 212° (SSW) 2,554 - -42.4°
Sets 00:14:10 0° 195° (SSW) 3,508 - -42.6°
